Location: Assche-ter-Heiden
(50.9174°N, 4.1574°E)
Time: 16:01:46
(UTC+00:00)

Cosmos 1726 Rocket - Pass Details

Date: 20 January 2020
Orbit: 602 x 631 km, 82.5° (Epoch: 20 February)

Event Time Altitude Azimuth Distance (km) Brightness Sun altitude
Rises 05:18:16 0° 174° (S) 2,909 7.2 -21.1°
Reaches altitude 10° 05:20:32 10° 169° (S) 2,004 6.4 -20.8°
Maximum altitude 05:24:50 50° 94° (E) 802 4.5 -20.1°
Drops below altitude 10° 05:29:08 10° 20° (NNE) 2,007 6.3 -19.4°
Sets 05:31:24 0° 15° (NNE) 2,914 7.1 -19.1°
